Вернуться в каталог

STARLINK-34057

АктивенСвязьVLEO
NORAD 63814·PAYLOAD·🇺🇸 United States

Запущен May 4, 2025 с Cape Canaveral Space Force Station

Loading…

Ближайшие Пролёты (ближайшие 24 часа)

TLE

СвежийSource: CelesTrak SupGP

Эпоха: Sep 15, 2026, 03:03 UTC

1 63814C 25092L   26258.12756944 -.00015191  00000+0 -55031-3 0  2584
2 63814  42.9993 182.4067 0001096 271.9916 318.9285 15.27580778    16

Отслеживайте STARLINK-34057 в реальном времени с AllMySat

Download on the App Store